Location: Sternwarte Stuttgart
(48.7824°N, 9.1965°E)
Time: 13:19:56
(UTC+00:00)

ISS - Pass Details

Date: 27 April 2025
Orbit: 416 x 420 km, 51.6° (Epoch: 15 May)

Event Time Altitude Azimuth Distance (km) Brightness Sun altitude
Exits shadow 03:18:47 - 266° (W) 1,578 -1.4 -8.3°
Reaches altitude 10° 03:19:00 10° 267° (W) 1,494 -1.5 -8.3°
Maximum altitude 03:22:19 60° 348° (NNW) 483 -3.4 -7.8°
Drops below altitude 10° 03:25:39 10° 69° (ENE) 1,498 0.7 -7.3°
Sets 03:27:46 0° 74° (ENE) 2,364 2.0 -7.0°
